Location: ????????
(56.0167°N, 38.0333°E)
Time: 17:24:30
(UTC+00:00)

Cosmos 1833 Rocket - Pass Details

Date: 19 May 2025
Orbit: 831 x 838 km, 71.0° (Epoch: 20 June)

Event Time Altitude Azimuth Distance (km) Brightness Sun altitude
Rises 18:42:28 0° 198° (SSW) 3,380 5.5 -6.7°
Reaches altitude 10° 18:44:55 10° 195° (SSW) 2,450 4.8 -6.9°
Maximum altitude 18:50:26 60° 117° (ESE) 958 2.8 -7.4°
Drops below altitude 10° 18:56:00 10° 39° (NE) 2,465 5.3 -7.8°
Sets 18:58:28 0° 36° (NE) 3,403 6.1 -8.0°
